Flag for Israel Weather past 2 weeks in Rehovot, Israel

Now
82 °F

Scattered clouds.


Feels Like: 85 °F
Forecast: 74 / 86 °F
Wind: 3 mph from North

Location: Ben Gurion International Airport

Current Time: Sep 18, 2014 at 8:43:30 AM

Latest Report: Sep 18, 2014 at 8:20 AM


Visibility: N/A

Pressure: 29.89 "Hg

Humidity: 62%

Dew point: 68 °F

Location of RehovotLocation

Historic Weather in Rehovot — Graph

°F

Rehovot temperature yesterday

Maximum temperature yesterday: 100 °F (at 1:20 PM)
Minimum temperature yesterday: 70 °F (at 6:20 AM)
Average temperature yesterday: 85 °F

Past Weeks' High & Low Weather Summary

 TemperatureHumidityPressure
High100 °F (Sep 17, 1:20 PM)83% (Sep 5, 3:20 AM)29.95 "Hg (Sep 5, 3:20 AM)
Low70 °F (Sep 17, 6:20 AM)20% (Sep 17, 10:50 AM)29.68 "Hg (Sep 17, 3:50 PM)
Average81 °F63%29.85 "Hg
* Reported Sep 3 7:20 AM — Sep 18 7:20 AM, Rehovot, Weather by CustomWeather, © 2014

Note: Actual official high and low records may vary slightly from our data, if they occured in-between our weather recording intervals... More about our weather records

Advertising

Rehovot weather history for previous 24 hours

 ConditionsComfort  
Time TempWeatherWind HumidityBarometerVisibility
7:20 AM
Sep 18
79 °FPassing clouds.5 mph70%29.89 "HgN/A
6:50 AM77 °FPassing clouds.2 mph74%29.89 "HgN/A
6:20 AM77 °FPassing clouds.2 mph74%29.86 "HgN/A
5:50 AM77 °FPassing clouds.3 mph74%29.86 "HgN/A
5:20 AM77 °FPassing clouds.5 mph74%29.86 "HgN/A
4:50 AM77 °FPassing clouds.3 mph74%29.86 "HgN/A
4:20 AM79 °FPassing clouds.6 mph70%29.86 "HgN/A
3:50 AM79 °FPassing clouds.3 mph70%29.86 "HgN/A
3:20 AM79 °FPassing clouds.2 mph70%29.86 "HgN/A
2:50 AM79 °FPassing clouds.5 mph70%29.86 "HgN/A
2:20 AM79 °FPassing clouds.6 mph74%29.86 "HgN/A
1:50 AM79 °FPassing clouds.7 mph74%29.83 "HgN/A
1:20 AM79 °FPassing clouds.9 mph74%29.83 "HgN/A
12:50 AM81 °FPassing clouds.9 mph70%29.83 "HgN/A
12:20 AM81 °FPassing clouds.10 mph74%29.83 "HgN/A
11:50 PM
Sep 17
81 °FPassing clouds.12 mph74%29.83 "HgN/A
11:20 PM81 °FPassing clouds.10 mph74%29.83 "HgN/A
10:50 PM81 °FClear.8 mph74%29.83 "Hg10 mi
10:20 PM82 °FClear.12 mph70%29.80 "Hg10 mi
9:50 PM82 °FClear.13 mph74%29.80 "Hg10 mi
9:20 PM82 °FClear.9 mph70%29.80 "Hg10 mi
8:50 PM84 °FClear.8 mph66%29.77 "Hg10 mi
8:20 PM84 °FClear.5 mph66%29.77 "Hg10 mi
7:50 PM84 °FClear.8 mph62%29.77 "Hg10 mi
7:20 PM84 °FSunny.9 mph66%29.74 "Hg10 mi
6:50 PM86 °FSunny.10 mph62%29.74 "Hg10 mi
6:20 PM90 °FSunny.13 mph46%29.71 "Hg10 mi
5:50 PM95 °FSunny.16 mph28%29.71 "Hg10 mi
5:20 PM97 °FSunny.15 mph25%29.71 "Hg10 mi
4:50 PM99 °FSunny.15 mph24%29.68 "Hg10 mi
4:20 PM100 °FSunny.10 mph22%29.68 "Hg10 mi
3:50 PM100 °FPassing clouds.13 mph22%29.68 "HgN/A
3:20 PM100 °FPassing clouds.13 mph24%29.71 "HgN/A
2:50 PM100 °FPassing clouds.10 mph25%29.71 "HgN/A
2:20 PM100 °FPassing clouds.10 mph24%29.71 "HgN/A
1:50 PM100 °FPassing clouds.8 mph24%29.71 "HgN/A
1:20 PM100 °FSunny.2 mph22%29.74 "Hg10 mi
12:50 PM99 °FSunny.3 mph22%29.74 "Hg10 mi
12:20 PM97 °FSunny.5 mph23%29.77 "Hg10 mi
11:50 AM97 °FSunny.2 mph22%29.77 "Hg10 mi
11:20 AM95 °FSunny.1 mph22%29.80 "Hg10 mi
10:50 AM95 °FSunny.No wind20%29.80 "Hg10 mi
10:20 AM91 °FSunny.1 mph23%29.80 "Hg10 mi
9:50 AM90 °FSunny.1 mph26%29.83 "Hg10 mi
9:20 AM86 °FSunny.1 mph29%29.83 "Hg10 mi
8:50 AM81 °FSunny.2 mph34%29.80 "Hg10 mi
8:20 AM79 °FSunny.1 mph45%29.80 "Hg10 mi
Weather by CustomWeather, © 2014

See weather overviewHow to use our weather pages